Regional Weather Roundup
Issued by NWS Grand Forks, ND

Home | Current Version | Previous Version | Graphics & Text | Print | Product List | Glossary On
Versions: 1 2 3 4 5 6 7 8 9 10 11 12 13 14 15 16 17 18 19 20 21 22 23 24 25 26 27 28 29 30 31 32 33 34 35 36 37 38 39 40 41 42 43 44 45 46 47 48 49 50
000
ASUS43 KFGF 291631
RWRFGF
PRAIRIE TO PINES  WEATHER ROUNDUP
NATIONAL WEATHER SERVICE EASTERN NORTH DAKOTA/GRAND FORKS ND
1100 AM CDT FRI MAY 29 2015

 **SATELLITE DATA USED TO AUGMENT SKY COVER AT AUTOMATED STATIONS**
 *****  WEATHER ACROSS EASTERN NORTH DAKOTA  *****

CITY           SKY/WX    TMP DP  RH WIND       PRES   REMARKS
GRAND FORKS    CLOUDY    45  37  73 N26G33    30.15R
GRAND FRKS AFB CLOUDY    47  36  65 N29G35    30.15S
GRAND FRKS NWS   N/A     43 N/A N/A VRB30       N/A
DEVILS LAKE    CLOUDY    46  30  53 N18G31    30.21R
FARGO          CLOUDY    47  41  80 N25G37    30.11R
WAHPETON ARPT  CLOUDY    46  43  87 N21G35    30.07R
$$

 ***** WEATHER ACROSS CENTRAL AND WESTERN NORTH DAKOTA  *****

CITY           SKY/WX    TMP DP  RH WIND       PRES   REMARKS
BISMARCK       CLOUDY    51  35  54 N18G25    30.22R
MINOT          CLOUDY    45  33  63 N16       30.28R
JAMESTOWN      CLOUDY    50  40  68 N28G35    30.15R
MINOT AFB      CLOUDY    45  40  82 N14G21    30.27R
GARRISON         N/A     47  35  63 N12G20    30.26R
WILLISTON      CLOUDY    47  33  58 N9G20     30.33R
DICKINSON      CLOUDY    45  33  63 N16       30.26R
HETTINGER      CLOUDY    46  36  68 N18G25    30.26R
$$

 *****  OTHER AIRPORT OBSERVATIONS IN OUR AREA  *****

CITY           SKY/WX    TMP DP  RH WIND       PRES   REMARKS
WALHALLA         N/A     46  41  81 MISG      30.22R
GRAFTON AIRPOR CLOUDY    43  37  81 N25G35    30.19S
VALLEY CITY AR CLOUDY    46  41  81 N18G30    30.15R
CANDO          CLOUDY    46  34  61 N18G26    30.23S
CAVALIER APRT  NOT AVBL
GWINNER        NOT AVBL
SHEYENNE NWR     N/A     48  42  78 N15       29.95S
ROLLA          CLOUDY    43  37  81 N18G25    30.25R
 ***** THE ABOVE OBSERVATIONS ARE NON NWS ARE NOT QUALITY
       CONTROLLED AND MAY MIS-REPORT RAIN FOR SNOW...
$$

  *****  WEATHER ACROSS NORTHERN MINNESOTA  *****

CITY           SKY/WX    TMP DP  RH WIND       PRES   REMARKS
FLAG ISLAND    CLOUDY    45  39  81 NW24G33   30.08R
WARROAD        CLOUDY    46  39  76 NW17G23   30.10R
ROSEAU         CLOUDY    46  39  76 N21G28    30.11R
HALLOCK        CLOUDY    45  36  70 N18G29    30.18R
THF RVR FALLS  CLOUDY    45  37  76 N20       30.12R
BAUDETTE       CLOUDY    47  41  80 NW20G26   30.05R
WASKISH        CLOUDY    46  45  93 MISG      30.06R
CROOKSTON      CLOUDY    45  39  81 N23G32    30.15R
STEPHEN NDAWN    N/A     43  37  81 VRB21       N/A
GREENBUSH NDAW   N/A     43  39  87 N17         N/A
$$
  *****  WEATHER ACROSS CENTRAL AND WEST MINNESOTA  *****

CITY           SKY/WX    TMP DP  RH WIND       PRES   REMARKS
FOSSTON        CLOUDY    45  43  93 N18G25    30.10R
BEMIDJI        CLOUDY    47  44  88 NW18G25   30.04R
PARK RAPIDS    CLOUDY    52  49  89 N16       30.00R
ELBOW LAKE     RAIN      52  51  98 N15G26    30.01R
WADENA         CLOUDY    54  52  94 N12       29.99R
DETROIT LAKES  CLOUDY    48  45  87 N22G31    30.06R
MOORHEAD       CLOUDY    45  43  93 N30       30.11R
FERGUS FALLS   CLOUDY    52  48  87 N18G29    30.04R
MORRIS MN      CLOUDY    54  52  94 NW23      29.97R FOG
STAPLES        DRIZZLE   57  55  94 N13       29.97R
$$
  *****  WEATHER ELSEWHERE ACROSS MINNESOTA  *****

CITY           SKY/WX    TMP DP  RH WIND       PRES   REMARKS
DULUTH         PTSUNNY   68  57  68 NW8       29.89R
INTRNTL FALLS  CLOUDY    51  46  83 NW18      29.99R
ELY            NOT AVBL
CLOQUET        CLOUDY    66  55  68 NW10      29.91R
WHEATON        LGT RAIN  46  45  93 N23G35    30.06R
BRAINERD       LGT RAIN  60  56  86 N16       29.94R
HIBBING        LGT RAIN  59  56  89 N13       29.92R FOG
ALEXANDRIA     LGT RAIN  59  57  93 N17       29.97R FOG
SAINT CLOUD    CLOUDY    66  59  78 N8        29.90R
MINNEAPOLIS    CLOUDY    70  64  81 SW7       29.89S
$$

  *****  WEATHER ACROSS SOUTH DAKOTA  *****

CITY           SKY/WX    TMP DP  RH WIND       PRES   REMARKS
SIOUX FALLS    CLOUDY    67  63  87 NW3       29.90R
BROOKINGS      CLOUDY    54  52  94 N18G24    29.97R
WATERTOWN      CLOUDY    51  48  89 N22G30    29.99R
HURON            N/A    N/A N/A N/A MISG      29.99R
SISSETON         N/A     48  47  96 N28G38    30.04R
ABERDEEN       LGT RAIN  52  48  86 N17G33    30.09R
MITCHELL       LGT RAIN  62  60  93 N21G31    29.94R
PIERRE         LGT RAIN  51  50  96 N26G36    30.09R
MOBRIDGE       CLOUDY    51  45  79 N20G30    30.14R
RAPID CITY     CLOUDY    47  45  93 N24G31    30.21R
$$

  *****  SOME WEATHER IN NEARBY STATES *****

CITY           SKY/WX    TMP DP  RH WIND       PRES   REMARKS
GLASGOW MT     MOSUNNY   48  33  56 NE9       30.35S
GREAT FALLS MT CLOUDY    49  44  83 E5        30.27F
CHEYENNE WY    PTSUNNY   53  41  63 N10       30.22S
SCOTTSBLUFF NE LGT RAIN  54  52  93 N9        30.17R
OMAHA NE       CLOUDY    72  63  73 SW9       29.92F
DES MOINES IA  CLOUDY    73  65  75 S7        29.93F
DAVENPORT IA   CLOUDY    72  66  81 S9        29.98S
CHICAGO IL     PTSUNNY   79  65  62 S15G22    30.01F
EAU CLAIRE WI  CLOUDY    69  64  84 S8        29.90S
LA CROSSE WI   CLOUDY    75  63  66 S9        29.92S
$$

  *****  SOME NATIONAL WEATHER *****

CITY           SKY/WX    TMP DP  RH WIND       PRES   REMARKS
LA GUARDIA NY  MOSUNNY   75  55  49 NE9       30.28F
RALEIGH NC     MOSUNNY   82  67  60 CALM      30.26S
ATLANTA GA     PTSUNNY   78  64  61 SE6       30.25R
NEW ORLEANS LA MOSUNNY   84  69  60 S8        30.08S
OKLAHOMA CITY  CLOUDY    71  62  73 CALM      29.97S
ALBUQUERQUE NM PTSUNNY   71  36  27 N10       30.18R
SALT LAKE CITY MOSUNNY   65  41  41 CALM      30.20S
LOS ANGELES CA CLOUDY    60  56  86 CALM      29.98R FOG
BOISE ID       SUNNY     71  46  40 E8        30.11S
SEATTLE WA     PTSUNNY   60  53  77 SW5       30.00F
$$

*** WEATHER ACROSS MANITOBA...SASKATCHEWAN AND ONTARIO ***
                ***ONTARIO***

CITY           SKY/WX    TMP DP  RH WIND       PRES   REMARKS
GERALDTON      CLOUDY    68  57  68 W7G17     29.81S
THUNDER BAY    LGT RAIN  52  48  87 NE3       29.85R FOG
SIOUX LOOKOUT  DRIZZLE   48  46  93 N13G18    29.96R FOG
TORONTO        PTSUNNY   75  52  43 SE12      30.19F
BIG TROUT LK   LGT RAIN  37  36  93 E10       30.02S FOG
PICKLE LAKE    DRIZZLE   46  45  93 N5        29.91R FOG
DRYDEN         CLOUDY    45  43  93 NW12G20   29.98R
KENORA         CLOUDY    43  37  81 NW12G25   30.07R
$$
                *** MANITOBA***

CITY           SKY/WX    TMP DP  RH WIND       PRES   REMARKS
BRANDON        MOSUNNY   46  30  53 NE18G24   30.28R
DAUPHIN        PTSUNNY   41  32  70 N16G24    30.33R
ISLAND LAKE    FLURRIES  32  30  93 N16G26    30.18S WCI  21
PILOT MOUND      N/A     41  36  81 N17G24      N/A
THE PAS        CLOUDY    37  23  56 N14       30.40R
THOMPSON       FLURRIES  30  25  80 N12G21    30.37R WCI  21
WINNIPEG       PTSUNNY   46  36  66 N20G29    30.21R
LYNN LAKE      LGT RAIN  34  19  55 N13G18    30.42S WCI  25
CHURCHILL      FLURRIES  28  23  80 N15       30.42R WCI  17
GILLAM         SNOW      27  25  93 NE13G18   30.32R VSB 3/8 WCI  16
$$
                ***SASKATCHEWAN***

CITY           SKY/WX    TMP DP  RH WIND       PRES   REMARKS
ESTEVAN        CLOUDY    45  32  61 N13G20    30.33R
KINDERSLEY     PTSUNNY   48  30  49 VRB8      30.35F
LLOYDMINSTER   MOSUNNY   48  25  40 E5        30.37S
PRINCE ALBERT  MOSUNNY   43  23  45 E6        30.43S
REGINA         MOSUNNY   46  27  46 N9G17     30.37R
YORKTON        PTSUNNY   41  28  60 N10G21    30.35S
N. BATTLEFORD  SUNNY     48  27  43 SE3       30.42S
LA RONGE       MOSUNNY   39  18  41 E7        30.46F
SASKATOON      MOSUNNY   48  27  43 VRB3      30.43R
SWIFT CURRENT  MOSUNNY   46  30  53 VRB8      30.35S
$$
NOTE: THESE ARE AUTOMATED STATIONS WITH LIMITED QUALITY CONTROL
      "FAIR" INDICATES FEW OR NO CLOUDS BELOW 12,000 FEET WITH NO
      SIGNIFICANT WEATHER AND/OR OBSTRUCTIONS TO VISIBILITY.
      SKY/WX - SKY CONDITION AND SIGNIFICANT WEATHER.
      TMP - AIR TEMPERATURE.    DP   - DEWPOINT TEMPERATURE.
      RH  - RELATIVE HUMIDITY.  PRES - PRESSURE.
      HX  - HEAT INDEX.         WCI  - WIND CHILL INDEX.
$


USA.gov is the U.S. government's official web portal to all federal, state and local government web resources and services.